Home > Weather > Hallein > Past weeks

Flag for Austria Past Weather in Hallein, Salzburg, Austria — Yesterday and Last 2 Weeks

Now
70 °F

Passing clouds.


Feels Like: 70 °F
Forecast: 55 / 65 °F
Wind: 16 mph from Southeast

Location: Salzburg-Flughafen

Current Time: Jul 31, 2016 at 3:54:30 AM

Latest Report: Jul 31, 2016 at 3:20 AM


Visibility: N/A

Pressure: 29.95 "Hg

Humidity: 64%

Dew Point: 57 °F

Location of HalleinLocation

Past Weather in Hallein — Graph

°F

Hallein Temperature Yesterday

Maximum temperature yesterday: 84 °F (at 3:20 PM)
Minimum temperature yesterday: 63 °F (at 1:50 AM)
Average temperature yesterday: 73 °F

High & Low Weather Summary for the Past Weeks

 TemperatureHumidityPressure
High84 °F (Jul 20, 4:50 PM)100% (Jul 16, 2:20 AM)30.33 "Hg (Jul 16, 2:20 AM)
Low52 °F (Jul 16, 2:20 AM)37% (Jul 20, 4:50 PM)29.92 "Hg (Jul 30, 6:50 PM)
Average68 °F77%30.10 "Hg
* Reported Jul 16 2:20 AM — Jul 31 2:50 AM, Hallein, Weather by CustomWeather, © 2016

Note: Actual official high and low records may vary slightly from our data, if they occured in-between our weather recording intervals... More about our weather records

Advertising

Hallein Weather History for the Previous 24 Hours

Scroll right to see more
 ConditionsComfort  
Time TempWeatherWind HumidityBarometerVisibility
2:50 AM
Sun, Jul 31
72 °FPassing clouds.16 mph61%29.95 "HgN/A
2:20 AM72 °FPassing clouds.15 mph61%29.95 "HgN/A
1:50 AM72 °FPassing clouds.13 mph65%29.98 "HgN/A
1:20 AM72 °FPartly cloudy.14 mph65%29.98 "HgN/A
12:50 AM72 °FOvercast.13 mph69%29.98 "HgN/A
12:20 AM72 °FMild.12 mph69%29.98 "HgN/A
11:50 PM
Sat, Jul 30
73 °FMild.10 mph65%29.98 "HgN/A
11:20 PM73 °FPartly cloudy.10 mph65%29.98 "HgN/A
10:50 PM73 °FPassing clouds.12 mph69%29.98 "HgN/A
10:20 PM72 °FPassing clouds.10 mph73%29.95 "HgN/A
9:50 PM72 °FPassing clouds.8 mph73%29.95 "HgN/A
9:20 PM72 °FScattered clouds.5 mph73%29.95 "HgN/A
8:50 PM73 °FScattered clouds.6 mph74%29.95 "HgN/A
8:20 PM77 °FScattered clouds.5 mph69%29.95 "HgN/A
7:50 PM81 °FScattered clouds.6 mph62%29.95 "HgN/A
7:20 PM82 °FScattered clouds.5 mph55%29.92 "HgN/A
6:50 PM84 °FScattered clouds.1 mph40%29.92 "HgN/A
6:20 PM84 °FPassing clouds.2 mph43%29.95 "HgN/A
5:50 PM84 °FPassing clouds.5 mph45%29.95 "HgN/A
5:20 PM84 °FPassing clouds.5 mph40%29.95 "HgN/A
4:50 PM84 °FPassing clouds.8 mph45%29.95 "HgN/A
4:20 PM84 °FPassing clouds.6 mph45%29.95 "HgN/A
3:50 PM84 °FPassing clouds.6 mph48%29.95 "HgN/A
3:20 PM84 °FPassing clouds.5 mph48%29.98 "HgN/A
2:50 PM82 °FPassing clouds.5 mph51%29.98 "HgN/A
2:20 PM82 °FPassing clouds.5 mph51%29.98 "HgN/A
1:50 PM82 °FPassing clouds.7 mph51%29.98 "HgN/A
1:20 PM81 °FPassing clouds.2 mph51%29.98 "HgN/A
12:50 PM81 °FPassing clouds.3 mph51%30.01 "HgN/A
12:20 PM81 °FPassing clouds.3 mph54%30.01 "HgN/A
11:50 AM79 °FPassing clouds.6 mph58%30.01 "HgN/A
11:20 AM77 °FPassing clouds.5 mph57%30.01 "HgN/A
10:50 AM77 °FPassing clouds.2 mph61%30.01 "HgN/A
10:20 AM75 °FPassing clouds.1 mph61%30.01 "HgN/A
9:50 AM73 °FPassing clouds.3 mph65%30.01 "HgN/A
9:20 AM72 °FPassing clouds.6 mph69%30.04 "HgN/A
8:50 AM72 °FPassing clouds.7 mph73%30.04 "HgN/A
8:20 AM70 °FPassing clouds.8 mph73%30.04 "HgN/A
7:50 AM68 °FPassing clouds.8 mph78%30.04 "HgN/A
7:20 AM66 °FPassing clouds.7 mph83%30.04 "HgN/A
6:50 AM64 °FScattered clouds.7 mph88%30.01 "HgN/A
6:20 AM63 °FPassing clouds.7 mph88%30.01 "HgN/A
5:50 AM63 °FPassing clouds.8 mph88%30.01 "HgN/A
5:20 AM63 °FPassing clouds.7 mph88%30.01 "HgN/A
4:50 AM63 °FPassing clouds.6 mph88%30.01 "HgN/A
4:20 AM63 °FPassing clouds.8 mph88%30.01 "HgN/A
3:50 AM63 °FPassing clouds.8 mph88%30.01 "HgN/A
3:20 AM63 °FPassing clouds.7 mph88%30.04 "HgN/A
Weather by CustomWeather, © 2016

See weather overviewHow to use our weather pages